Regional Weather Roundup
Issued by NWS Spokane, WA

Home | Current Version | Previous Version | Text Only | Print | Product List | Glossary On
Versions: 1 2 3 4 5 6 7 8 9 10 11 12 13 14 15 16 17 18 19 20 21 22 23 24 25 26 27 28 29 30 31 32 33 34 35 36 37 38 39 40 41 42 43 44 45 46 47 48 49 50
000
NZUS01 KOTX 031710
RWROTX
EASTERN WASHINGTON/NORTHERN IDAHO ROUNDUP
NATIONAL WEATHER SERVICE, SPOKANE WA
1000 AM PDT MON AUG 03 2015

Note: "fair" indicated few or no clouds below 12,000 feet with no
significant weather and/or obstructions to visibility.

...NORTHEAST WASHINGTON AND NORTHERN IDAHO PANHANDLE...

CITY           SKY/WX    TMP DP  RH WIND       PRES   REMARKS
SPOKANE INTL   PTSUNNY   79  36  21 SE5       29.83S
SPOKANE DOWNTO MOSUNNY   79  47  32 CALM      29.82F SMOKE
COEUR D ALENE  SUNNY     79  43  27 SE3       29.82S
DEER PARK      MOSUNNY   78  42  27 SE3       29.82F HAZE
SANDPOINT      SUNNY     77  43  29 N6        29.82F
BONNERS FERRY  FAIR      73  45  35 CALM      29.84F

...SOUTHEAST WASHINGTON AND SOUTHERN IDAHO PANHANDLE...

CITY           SKY/WX    TMP DP  RH WIND       PRES   REMARKS
WALLA WALLA    CLOUDY    83  43  24 SW10      29.82S
PULLMAN/MOSCOW CLOUDY    79  40  24 W10       29.88R
LEWISTON       CLOUDY    77  41  27 NE6       29.81R
LOWELL           N/A     73  48  41 CALM      29.83F

...COLUMBIA BASIN...

CITY           SKY/WX    TMP DP  RH WIND       PRES   REMARKS
EPHRATA        PTSUNNY   85  48  27 S5        29.76F
MOSES LAKE     PTSUNNY   78  55  44 SE5       29.77S
TRI CITIES     CLOUDY    86  47  25 SW10      29.77S
HERMISTON      CLOUDY    82  49  31 W10       29.79F
PENDLETON      CLOUDY    84  38  19 W17       29.84S

...EAST SLOPES CASCADES...

CITY           SKY/WX    TMP DP  RH WIND       PRES   REMARKS
THE DALLES     CLOUDY    77  51  40 NW14      29.83R
YAKIMA         CLOUDY    88  47  24 NW8       29.80S
ELLENSBURG     CLOUDY    82  42  24 NW25G35   29.84S
WENATCHEE      PTSUNNY   87  41  19 NW18      29.78S
OMAK           MOSUNNY   91  42  18 NW13G21   29.76S

...SOUTHERN BRITISH COLUMBIA...

CITY           SKY/WX    TMP DP  RH WIND       PRES   REMARKS
PENTICTON      CLOUDY    79  50  36 NE8       29.79F
CASTLEGAR      PTSUNNY   73  50  43 N6        29.81F
CRANBROOK      PTSUNNY   73  43  33 VRB2      29.90S

...WESTERN MONTANA...

CITY           SKY/WX    TMP DP  RH WIND       PRES   REMARKS
MISSOULA       MOSUNNY   72  36  26 N3        29.91F

...NEIGHBORING CITIES...

CITY           SKY/WX    TMP DP  RH WIND       PRES   REMARKS
SEATTLE        PTSUNNY   65  53  65 SW5       29.94F
CALGARY        CLOUDY    72  54  53 W3        29.89S



USA.gov is the U.S. government's official web portal to all federal, state and local government web resources and services.